GW0408 Weather Reports


time (UTC)temp
C
wind
direction
speed
KPH
gust
KPH
rain 1hr
cm
rain 24hr
cm
rain mn
cm
humidity
%
barometer
mb
20260505112140 15 154 6.4 9.7 0.00 0.00 0.00 79 1012.8
20260505111626 15 295 4.8 9.7 0.00 0.00 0.00 80 1012.7
20260505111127 15 152 4.8 9.7 0.00 0.00 0.00 80 1012.8
20260505110625 15 160 4.8 9.7 0.00 0.00 0.00 80 1012.8
20260505110344 15 158 4.8 6.4 0.00 0.00 0.00 80 1012.7
20260505102110 15 151 4.8 6.4 0.00 0.00 0.00 80 1012.5
20260505101611 15 166 3.2 6.4 0.00 0.00 0.00 81 1012.4
20260505101336 15 145 3.2 8.0 0.00 0.00 0.00 80 1012.4
20260505100609 15 169 3.2 8.0 0.00 0.00 0.00 80 1012.3
20260505100108 15 319 4.8 8.0 0.00 0.00 0.00 80 1012.3
20260505095842 15 156 4.8 8.0 0.00 0.00 0.00 80 1012.2
20260505095056 15 172 4.8 8.0 0.00 0.00 0.00 80 1012.1
20260505094556 15 171 4.8 11.3 0.00 0.00 0.00 80 1012.1
20260505094046 15 141 6.4 11.3 0.00 0.00 0.00 80 1012.0
20260505093546 15 188 6.4 11.3 0.00 0.00 0.00 79 1012.0
20260505093046 15 146 6.4 11.3 0.00 0.00 0.00 80 1012.1
20260505092546 15 170 6.4 9.7 0.00 0.00 0.00 80 1012.0
20260505092046 15 232 6.4 9.7 0.00 0.00 0.00 80 1012.0
20260505091546 15 293 6.4 9.7 0.00 0.00 0.00 80 1012.0
20260505091046 16 295 6.4 8.0 0.00 0.00 0.00 80 1012.0
20260505090546 16 147 6.4 8.0 0.00 0.00 0.00 80 1011.9
20260505090042 16 170 6.4 8.0 0.00 0.00 0.00 79 1011.9
20260505085526 16 306 6.4 8.0 0.00 0.00 0.00 79 1011.9
20260505085010 16 170 4.8 8.0 0.00 0.00 0.00 79 1011.9
20260505084511 16 137 4.8 8.0 0.00 0.00 0.00 79 1011.9
20260505084011 16 297 4.8 6.4 0.00 0.00 0.00 79 1011.9
20260505083510 16 143 3.2 6.4 0.00 0.00 0.00 78 1011.8
20260505083011 16 132 3.2 6.4 0.00 0.00 0.00 78 1011.9
20260505082511 16 147 1.6 6.4 0.00 0.00 0.00 78 1011.9
20260505082011 16 284 1.6 6.4 0.00 0.00 0.00 78 1012.0
20260505081732 16 150 3.2 11.3 0.00 0.00 0.00 78 1012.0
20260505081009 16 117 1.6 11.3 0.00 0.00 0.00 77 1011.9
20260505080509 16 0 1.6 6.4 0.00 0.00 0.00 77 1011.9
20260505080010 16 0 1.6 9.7 0.00 0.00 0.00 77 1011.8
20260505075510 16 156 1.6 9.7 0.00 0.00 0.00 77 1011.8
20260505075010 16 149 1.6 4.8 0.00 0.00 0.00 77 1011.8
20260505074511 16 221 1.6 4.8 0.00 0.00 0.00 77 1011.8
20260505074011 16 243 1.6 4.8 0.00 0.00 0.00 77 1011.7
20260505073512 16 0 0.0 4.8 0.00 0.00 0.00 77 1011.6
20260505072959 16 0 1.6 6.4 0.00 0.00 0.00 77 1011.6
20260505072458 16 261 1.6 6.4 0.00 0.00 0.00 77 1011.6
20260505071959 16 287 1.6 4.8 0.00 0.00 0.00 77 1011.5
20260505071459 16 0 1.6 4.8 0.00 0.00 0.00 76 1011.5
20260505070959 16 0 1.6 4.8 0.00 0.00 0.00 76 1011.5
20260505070500 16 290 1.6 4.8 0.00 0.00 0.00 76 1011.5
20260505070000 17 0 1.6 6.4 0.00 0.00 0.00 76 1011.5
20260505065458 17 161 1.6 6.4 0.00 0.00 0.00 75 1011.4
20260505064942 17 164 1.6 8.0 0.00 0.00 0.00 75 1011.4
20260505064430 17 0 1.6 8.0 0.00 0.00 0.00 75 1011.5
20260505063928 17 177 1.6 6.4 0.00 0.00 0.00 75 1011.5
20260505063429 17 0 1.6 6.4 0.00 0.00 0.00 75 1011.5
20260505062912 17 164 3.2 6.4 0.00 0.00 0.00 75 1011.5
20260505062641 17 204 3.2 6.4 0.00 0.00 0.00 75 1011.5
20260505061913 17 0 3.2 6.4 0.00 0.00 0.00 74 1011.5
20260505061633 17 167 1.6 6.4 0.00 0.00 0.00 74 1011.5
20260505060913 17 0 1.6 4.8 0.00 0.00 0.00 75 1011.5
20260505060412 17 270 0.0 4.8 0.00 0.00 0.00 74 1011.5
20260505055911 17 316 0.0 3.2 0.00 0.00 0.00 74 1011.5
20260505055638 17 0 1.6 9.7 0.00 0.00 0.00 74 1011.5
20260505055121 17 161 3.2 9.7 0.00 0.00 0.00 73 1011.5
20260505054400 17 192 3.2 8.0 0.00 0.00 0.00 73 1011.5
20260505053859 17 212 3.2 8.0 0.00 0.00 0.00 73 1011.6
20260505053401 17 0 3.2 6.4 0.00 0.00 0.00 73 1011.5
20260505052845 18 189 3.2 6.4 0.00 0.00 0.00 73 1011.5
20260505052344 18 154 1.6 6.4 0.00 0.00 0.00 73 1011.5
20260505051845 18 180 1.6 4.8 0.00 0.00 0.00 73 1011.5
20260505051344 18 181 3.2 8.0 0.00 0.00 0.00 73 1011.5
20260505050832 18 223 3.2 8.0 0.00 0.00 0.00 73 1011.4
20260505050329 18 258 3.2 8.0 0.00 0.00 0.00 72 1011.4
20260505041548 18 101 3.2 9.7 0.00 0.00 0.00 72 1011.4
20260505040816 18 180 3.2 6.4 0.00 0.00 0.00 71 1011.3
20260505040317 18 236 3.2 8.0 0.00 0.00 0.00 72 1011.3
20260505035814 18 182 1.6 8.0 0.00 0.00 0.00 71 1011.1
20260505035313 18 0 3.2 8.0 0.00 0.00 0.00 71 1011.1
20260505035043 18 224 3.2 8.0 0.00 0.00 0.00 71 1011.1
20260505034314 18 178 1.6 8.0 0.00 0.00 0.00 72 1011.1
20260505034031 18 294 1.6 8.0 0.00 0.00 0.00 72 1011.1
20260505033314 18 0 1.6 4.8 0.00 0.00 0.00 71 1011.2
20260505032814 18 0 1.6 6.4 0.00 0.00 0.00 72 1011.2
20260505032314 18 0 1.6 6.4 0.00 0.00 0.00 70 1011.1
20260505032036 18 181 1.6 6.4 0.00 0.00 0.00 70 1011.1
20260505031314 18 0 1.6 4.8 0.00 0.00 0.00 70 1011.1
20260505030813 18 177 1.6 4.8 0.00 0.00 0.00 71 1011.1
20260505030313 18 191 1.6 4.8 0.00 0.00 0.00 68 1011.1
20260505025813 18 157 1.6 4.8 0.00 0.00 0.00 67 1011.1
20260505025313 19 170 1.6 4.8 0.00 0.00 0.00 67 1011.0
20260505024813 19 183 1.6 6.4 0.00 0.00 0.00 66 1010.9
20260505024314 18 134 1.6 6.4 0.00 0.00 0.00 65 1010.8
20260505023814 18 169 1.6 6.4 0.00 0.00 0.00 64 1010.8
20260505023314 18 0 1.6 4.8 0.00 0.00 0.00 63 1010.8
20260505023032 18 215 0.0 4.8 0.00 0.00 0.00 63 1010.8
20260505022315 17 188 0.0 4.8 0.00 0.00 0.00 64 1010.7
20260505021815 17 182 0.0 4.8 0.00 0.00 0.00 66 1010.5
20260505021314 17 0 0.0 4.8 0.00 0.00 0.00 69 1010.5
20260505020815 17 0 0.0 0.0 0.00 0.00 0.00 69 1010.6
20260505020533 17 0 0.0 0.0 0.00 0.00 0.00 65 1010.7
20260505015816 17 0 0.0 0.0 0.00 0.00 0.00 65 1010.7
20260505015312 17 0 0.0 0.0 0.00 0.00 0.00 66 1010.6
20260505014813 17 0 0.0 0.0 0.00 0.00 0.00 67 1010.6
20260505014313 17 0 0.0 0.0 0.00 0.00 0.00 67 1010.5
20260505013813 17 0 0.0 0.0 0.00 0.00 0.00 67 1010.4
20260505013313 17 0 0.0 0.0 0.00 0.00 0.00 68 1010.3
20260505012813 17 0 0.0 0.0 0.00 0.00 0.00 70 1010.2
20260505012313 17 0 0.0 0.0 0.00 0.00 0.00 70 1010.1
20260505011813 17 0 0.0 0.0 0.00 0.00 0.00 69 1010.2
20260505011313 17 0 0.0 0.0 0.00 0.00 0.00 65 1010.3
20260505010814 18 0 0.0 0.0 0.00 0.00 0.00 64 1010.3
20260505010536 18 0 0.0 0.0 0.00 0.00 0.00 64 1010.3
20260505005814 18 0 0.0 0.0 0.00 0.00 0.00 63 1010.2
20260505005310 18 0 0.0 1.6 0.00 0.00 0.00 62 1010.1
20260505004811 18 0 0.0 1.6 0.00 0.00 0.00 61 1010.1
20260505004311 19 215 0.0 1.6 0.00 0.00 0.00 60 1010.0
20260505004038 19 0 0.0 1.6 0.00 0.00 0.00 59 1010.0
20260505003310 20 0 0.0 1.6 0.00 0.00 0.00 59 1010.0
20260505002811 20 0 0.0 0.0 0.00 0.00 0.00 58 1010.0
20260505002312 20 0 0.0 3.2 0.00 0.00 0.00 58 1009.9
20260505001810 20 0 1.6 3.2 0.00 0.00 0.00 56 1009.9
20260505001307 21 325 1.6 3.2 0.00 0.00 0.00 55 1009.8
20260505000808 21 320 1.6 3.2 0.00 0.00 0.00 54 1009.7
20260505000524 21 177 1.6 3.2 0.00 0.00 0.00 53 1009.7
20260504235807 22 190 1.6 3.2 0.00 0.00 0.00 52 1009.7
20260504235307 22 185 0.0 3.2 0.00 0.00 0.00 52 1009.8
20260504234808 22 0 1.6 3.2 0.00 0.00 0.00 52 1009.8
20260504234308 23 192 1.6 3.2 0.00 0.00 0.00 47 1009.8
20260504233808 23 195 1.6 3.2 0.00 0.00 0.00 48 1009.8
20260504233308 23 203 3.2 4.8 0.00 0.00 0.00 46 1009.7
20260504232808 24 204 3.2 6.4 0.00 0.00 0.00 45 1009.7
20260504232308 24 195 3.2 6.4 0.00 0.00 0.00 44 1009.6
20260504231806 25 298 4.8 8.0 0.00 0.00 0.00 43 1009.6
20260504231302 25 162 4.8 8.0 0.00 0.00 0.00 42 1009.6
20260504230802 25 171 4.8 8.0 0.00 0.00 0.00 42 1009.5
20260504230303 24 161 4.8 8.0 0.00 0.00 0.00 42 1009.5
20260504230244 24 167 4.8 8.0 0.00 0.00 0.00 42 1009.5
20260504225304 24 325 4.8 8.0 0.00 0.00 0.00 43 1009.5
20260504224803 24 164 4.8 8.0 0.00 0.00 0.00 42 1009.6
20260504224303 25 323 4.8 9.7 0.00 0.00 0.00 42 1009.6
20260504224253 25 298 4.8 9.7 0.00 0.00 0.00 42 1009.6
20260504223303 25 314 6.4 9.7 0.00 0.00 0.00 41 1009.7
20260504222804 25 167 6.4 9.7 0.00 0.00 0.00 41 1009.8
20260504222305 25 190 6.4 9.7 0.00 0.00 0.00 40 1009.8
20260504221804 25 168 6.4 8.0 0.00 0.00 0.00 41 1009.8
20260504221300 25 172 4.8 8.0 0.00 0.00 0.00 39 1009.8
20260504221023 25 175 4.8 9.7 0.00 0.00 0.00 39 1009.8
20260504220527 26 173 4.8 9.7 0.00 0.00 0.00 38 1009.7
20260504215800 26 216 4.8 9.7 0.00 0.00 0.00 39 1009.8
20260504215259 26 172 4.8 8.0 0.00 0.00 0.00 39 1009.7
20260504215019 26 176 4.8 11.3 0.00 0.00 0.00 39 1009.8
20260504214257 26 182 6.4 11.3 0.00 0.00 0.00 39 1009.9
20260504213758 26 211 4.8 9.7 0.00 0.00 0.00 38 1009.9
20260504213258 26 182 4.8 14.5 0.00 0.00 0.00 37 1009.9
20260504212759 26 179 6.4 14.5 0.00 0.00 0.00 38 1009.9
20260504212258 25 170 6.4 12.9 0.00 0.00 0.00 39 1010.0
20260504211756 26 252 6.4 11.3 0.00 0.00 0.00 39 1010.0
20260504211256 26 162 6.4 12.9 0.00 0.00 0.00 38 1009.9
20260504210756 26 215 6.4 12.9 0.00 0.00 0.00 38 1010.0
20260504210256 26 179 6.4 14.5 0.00 0.00 0.00 38 1010.0
20260504205755 26 169 6.4 14.5 0.00 0.00 0.00 37 1010.0
20260504205742 26 187 6.4 17.7 0.00 0.00 0.00 38 1009.9
20260504205238 26 233 8.0 30.6 0.00 0.00 0.00 39 1010.0
20260504204256 27 312 6.4 30.6 0.00 0.00 0.00 38 1009.9
20260504204014 26 299 6.4 22.5 0.00 0.00 0.00 38 1009.9
20260504203256 26 211 6.4 11.3 0.00 0.00 0.00 38 1009.9
20260504202754 26 213 6.4 12.9 0.00 0.00 0.00 39 1010.0
20260504202252 26 218 6.4 12.9 0.00 0.00 0.00 40 1010.1
20260504201750 26 214 6.4 12.9 0.00 0.00 0.00 40 1010.1
20260504201251 26 210 6.4 14.5 0.00 0.00 0.00 37 1010.2
20260504201227 26 179 6.4 14.5 0.00 0.00 0.00 37 1010.2
20260504200251 26 339 4.8 9.7 0.00 0.00 0.00 36 1010.3
20260504195751 26 181 6.4 12.9 0.00 0.00 0.00 36 1010.4
20260504195508 26 199 6.4 12.9 0.00 0.00 0.00 36 1010.5
20260504194751 26 249 6.4 17.7 0.00 0.00 0.00 37 1010.5
20260504194731 25 187 6.4 17.7 0.00 0.00 0.00 37 1010.6
20260504193751 25 191 6.4 11.3 0.00 0.00 0.00 38 1010.8
20260504193251 25 201 6.4 11.3 0.00 0.00 0.00 36 1010.8
20260504192751 25 173 6.4 11.3 0.00 0.00 0.00 37 1011.0
20260504192249 25 228 6.4 12.9 0.00 0.00 0.00 37 1011.1
20260504191748 25 218 4.8 12.9 0.00 0.00 0.00 37 1011.1
20260504191248 24 245 6.4 12.9 0.00 0.00 0.00 39 1011.1
20260504190749 23 210 6.4 14.5 0.00 0.00 0.00 38 1011.3
20260504190249 23 249 6.4 14.5 0.00 0.00 0.00 38 1011.4
20260504185750 23 182 6.4 14.5 0.00 0.00 0.00 38 1011.5
20260504185249 23 297 6.4 12.9 0.00 0.00 0.00 39 1011.5
20260504184749 23 251 6.4 9.7 0.00 0.00 0.00 38 1011.6
20260504184249 23 252 6.4 14.5 0.00 0.00 0.00 38 1011.6
20260504184012 23 204 6.4 14.5 0.00 0.00 0.00 38 1011.8
20260504183726 23 338 4.8 11.3 0.00 0.00 0.00 37 1012.0
20260504182749 23 237 6.4 16.1 0.00 0.00 0.00 37 1012.0
20260504182250 23 207 6.4 22.5 0.00 0.00 0.00 38 1012.2
20260504181748 23 270 6.4 22.5 0.00 0.00 0.00 40 1012.0
20260504181247 23 177 6.4 16.1 0.00 0.00 0.00 41 1011.9
20260504180749 23 199 6.4 16.1 0.00 0.00 0.00 41 1011.9
20260504180248 23 224 4.8 11.3 0.00 0.00 0.00 41 1012.1
20260504175746 22 225 4.8 20.9 0.00 0.00 0.00 40 1012.1
20260504175511 23 263 4.8 20.9 0.00 0.00 0.00 40 1012.1
20260504174744 22 203 4.8 11.3 0.00 0.00 0.00 41 1012.2
20260504174244 22 197 6.4 14.5 0.00 0.00 0.00 40 1012.3
20260504173743 22 250 6.4 16.1 0.00 0.00 0.00 39 1012.3
20260504173244 23 184 4.8 16.1 0.00 0.00 0.00 40 1012.3
20260504173003 23 226 6.4 16.1 0.00 0.00 0.00 39 1012.4
20260504172239 22 226 6.4 16.1 0.00 0.03 0.00 40 1012.4
20260504171738 22 227 6.4 14.5 0.00 0.03 0.00 39 1012.5
20260504171501 22 231 4.8 14.5 0.00 0.03 0.00 39 1012.7
20260504170738 22 253 4.8 14.5 0.00 0.03 0.00 39 1012.8
20260504170238 22 204 6.4 14.5 0.00 0.03 0.00 40 1012.8
20260504160233 20 175 4.8 12.9 0.00 0.03 0.00 43 1013.5
20260504150728 18 256 4.8 12.9 0.00 0.05 0.00 55 1013.8
20260504150229 18 251 4.8 12.9 0.00 0.05 0.00 57 1013.7
20260504141227 16 200 4.8 12.9 0.00 0.05 0.00 64 1013.6
20260504140931 16 316 3.2 9.7 0.00 0.05 0.00 66 1013.6
20260504140816 16 196 3.2 11.3 0.00 0.05 0.00 64 1013.6
20260504130725 14 236 6.4 14.5 0.00 0.05 0.00 71 1014.0
20260504130225 13 189 6.4 14.5 0.00 0.05 0.00 73 1014.0
20260504120207 12 255 4.8 12.9 0.00 0.05 0.00 80 1014.1